CW1291 Weather Reports


Display with metric or nautical units.
time (UTC)temp
F
wind
direction
speed
MPH
gust
MPH
rain 1hr
in
rain 24hr
in
rain mn
in
humidity
%
barometer
mb
20201031004436 36 270 1.0 3.0 0.00 0.00 0.00 88 1022.7
20201031003435 36 249 1.0 4.0 0.00 0.00 0.00 88 1022.7
20201031002451 36 266 1.0 3.0 0.00 0.00 0.00 88 1022.3
20201031000457 35 278 1.0 4.0 0.00 0.00 0.00 89 1022.3
20201030233441 36 269 2.0 6.0 0.00 0.00 0.00 88 1022.0
20201030232437 36 248 1.0 3.0 0.00 0.00 0.00 87 1021.7
20201030230437 36 300 1.0 3.0 0.00 0.01 0.00 85 1021.3
20201030224435 37 276 1.0 2.0 0.00 0.01 0.00 81 1021.3
20201030223457 37 276 1.0 4.0 0.00 0.01 0.00 81 1021.0
20201030220435 37 359 0.0 2.0 0.00 0.01 0.00 79 1020.7
20201030215444 37 359 0.0 1.0 0.00 0.01 0.00 78 1020.3
20201030213436 37 359 0.0 1.0 0.00 0.01 0.00 77 1020.0
20201030212435 37 359 0.0 0.0 0.00 0.01 0.00 75 1020.0
20201030210439 38 343 0.0 1.0 0.00 0.01 0.00 74 1019.6
20201030205440 38 343 1.0 2.0 0.00 0.01 0.00 73 1019.6
20201030204437 38 345 0.0 2.0 0.00 0.01 0.00 73 1019.3
20201030202436 38 182 1.0 3.0 0.00 0.01 0.00 74 1019.3
20201030194438 38 348 2.0 3.0 0.00 0.01 0.00 73 1018.6
20201030191439 39 354 3.0 5.0 0.00 0.02 0.00 69 1018.3
20201030190439 39 357 2.0 4.0 0.00 0.02 0.00 73 1018.3
20201030182435 39 334 1.0 4.0 0.00 0.03 0.00 72 1017.9
20201030181435 39 324 1.0 4.0 0.00 0.03 0.00 73 1017.9
20201030173438 39 194 2.0 6.0 0.00 0.04 0.00 73 1017.6
20201030172456 38 29 1.0 3.0 0.00 0.04 0.00 76 1017.3
20201030171435 38 304 2.0 4.0 0.00 0.05 0.00 76 1016.9
20201030165445 38 185 2.0 4.0 0.00 0.07 0.00 76 1016.9
20201030164440 38 43 1.0 4.0 0.00 0.07 0.00 76 1016.9
20201030162435 37 49 2.0 3.0 0.00 0.07 0.00 78 1016.9
20201030161441 37 182 2.0 3.0 0.00 0.07 0.00 77 1016.9
20201030160436 37 185 2.0 3.0 0.00 0.07 0.00 81 1016.6
20201030155443 37 339 1.0 3.0 0.00 0.07 0.00 81 1016.9
20201030154436 37 179 1.0 3.0 0.00 0.07 0.00 81 1016.9
20201030152435 37 177 2.0 3.0 0.00 0.07 0.00 81 1016.6
20201030151442 37 332 2.0 3.0 0.00 0.07 0.00 81 1016.2
20201030150448 37 342 2.0 4.0 0.00 0.07 0.00 81 1016.2
20201030144436 37 336 2.0 5.0 0.00 0.07 0.00 82 1015.6
20201030143435 37 182 2.0 5.0 0.00 0.07 0.00 84 1015.2
20201030141435 36 187 2.0 9.0 0.00 0.07 0.00 85 1015.2
20201030135435 36 32 1.0 9.0 0.00 0.07 0.00 85 1014.9
20201030134439 36 341 2.0 5.0 0.00 0.07 0.00 85 1014.9
20201030121435 37 177 2.0 3.0 0.00 0.07 0.00 88 1013.2
20201030120441 37 200 2.0 5.0 0.00 0.07 0.00 88 1012.9
20201030115435 37 174 2.0 5.0 0.00 0.07 0.00 87 1012.9
20201030114435 37 348 2.0 4.0 0.00 0.07 0.00 88 1012.5
20201030113538 37 339 3.0 8.0 0.00 0.07 0.00 89 1012.5
20201030112636 37 177 2.0 3.0 0.00 0.07 0.00 89 1012.5
20201030110836 38 336 2.0 6.0 0.00 0.07 0.00 87 1012.2
20201030105938 38 173 2.0 6.0 0.00 0.07 0.00 89 1012.2
20201030103435 38 34 1.0 3.0 0.00 0.07 0.00 89 1011.8
20201030102435 38 350 1.0 3.0 0.00 0.07 0.00 89 1011.8
20201030100435 38 169 2.0 5.0 0.00 0.07 0.00 89 1011.8
20201030095436 38 15 2.0 4.0 0.00 0.07 0.00 89 1011.8
20201030094437 39 187 3.0 5.0 0.00 0.07 0.00 87 1011.5
20201030091435 40 28 2.0 7.0 0.00 0.07 0.00 84 1011.2
20201030090437 40 35 2.0 7.0 0.00 0.07 0.00 84 1010.8
20201030084435 40 145 3.0 5.0 0.00 0.07 0.00 84 1010.5
20201030082441 41 10 3.0 10.0 0.00 0.07 0.00 84 1010.2
20201030080435 41 42 4.0 12.0 0.00 0.07 0.00 84 1009.5
20201030074435 41 324 2.0 6.0 0.00 0.07 0.00 84 1009.5
20201030071438 41 187 3.0 9.0 0.00 0.07 0.00 84 1009.1
20201030065435 42 30 3.0 9.0 0.00 0.07 0.00 84 1009.1
20201030063437 42 41 4.0 9.0 0.00 0.07 0.00 82 1009.5
20201030062437 42 55 2.0 4.0 0.00 0.07 0.00 82 1009.5
20201030060448 42 49 3.0 9.0 0.00 0.07 0.00 83 1009.5
20201030055435 42 38 2.0 9.0 0.00 0.07 0.00 84 1009.5
20201030054438 42 52 3.0 5.0 0.00 0.07 0.00 84 1009.1
20201030053439 42 30 3.0 7.0 0.00 0.07 0.00 85 1009.1
20201030052437 42 187 2.0 5.0 0.00 0.07 0.00 85 1009.1
20201030051536 42 29 3.0 6.0 0.00 0.07 0.00 85 1009.1
20201030050638 42 186 3.0 6.0 0.00 0.07 0.00 85 1009.1
20201030045737 42 21 2.0 8.0 0.00 0.07 0.00 85 1009.1
20201030044837 42 22 3.0 7.0 0.00 0.07 0.00 85 1009.1
20201030043937 42 39 3.0 8.0 0.00 0.07 0.00 85 1009.1
20201030042135 43 30 3.0 8.0 0.00 0.07 0.00 85 1008.8
20201030041244 43 25 3.0 6.0 0.00 0.07 0.00 85 1008.8
20201030035436 43 30 4.0 9.0 0.00 0.07 0.00 85 1008.8
20201030033437 43 40 3.0 9.0 0.00 0.07 0.00 85 1008.5
20201030031438 43 209 4.0 10.0 0.00 0.07 0.00 85 1008.5
20201030030435 43 196 3.0 9.0 0.00 0.07 0.00 86 1008.5
20201030025435 44 31 4.0 12.0 0.00 0.07 0.00 86 1008.8
20201030024436 44 189 3.0 7.0 0.00 0.07 0.00 86 1008.8
20201030023435 44 51 2.0 9.0 0.00 0.07 0.00 87 1008.5
20201030022438 44 32 2.0 6.0 0.00 0.07 0.00 86 1008.5
20201030021435 44 45 3.0 13.0 0.00 0.07 0.00 86 1008.5
20201030015450 44 4 2.0 6.0 0.00 0.07 0.00 86 1008.5
20201030014438 44 37 4.0 7.0 0.00 0.07 0.00 86 1008.1
20201030013435 44 44 3.0 12.0 0.00 0.07 0.00 86 1008.1
20201030012439 44 40 3.0 6.0 0.00 0.07 0.00 86 1008.1
20201030011435 45 42 2.0 7.0 0.00 0.07 0.00 87 1007.8
20201030010440 45 39 2.0 6.0 0.00 0.07 0.00 87 1007.8